Location: ?????? ??????
(44.3742°N, 135.2221°E)
Time: 02:13:11
(UTC+00:00)

SL-16 R/B - Visible Passes

Search period start: 16 May 2026 00:00
Search period end: 26 May 2026 00:00
Orbit: 985 x 1006 km, 99.8° (Epoch: 15 May)

Date Brightness Start Highest point End Pass type
(mag) Time Alt. Az. Time Alt. Az. Time Alt. Az.
16 May 3.7 18:10:49 10° SE 18:16:43 47° ENE 18:22:38 10° N visible
17 May 5.3 17:01:22 10° E 17:04:43 15° NE 17:08:03 10° NNE visible
17 May 2.8 18:41:03 10° SSE 18:47:16 77° ENE 18:53:31 10° NNW visible
18 May 4.9 17:30:06 10° ESE 17:34:55 24° ENE 17:39:44 10° N visible
19 May 4.1 17:59:35 10° SE 18:05:16 39° ENE 18:10:57 10° N visible
20 May 5.5 16:51:00 10° ENE 16:53:24 12° NE 16:55:47 10° NNE visible
20 May 3.2 18:29:38 10° SSE 18:35:46 63° ENE 18:41:55 10° N visible
21 May 5.2 17:19:13 10° E 17:23:33 20° NE 17:27:52 10° NNE visible
22 May 4.4 17:48:27 10° ESE 17:53:51 32° ENE 17:59:14 10° N visible
23 May 5.8 16:41:57 10° NE 16:42:06 10° NE 16:42:15 10° NE visible
23 May 3.5 18:18:17 10° SE 18:24:17 52° ENE 18:30:18 10° N visible
24 May 5.3 17:08:29 10° E 17:12:12 17° NE 17:15:55 10° NNE visible
25 May 4.8 17:37:25 10° ESE 17:42:27 27° ENE 17:47:28 10° N visible
